This is the latest recevied weather packets stored in our database for station/object K0SDS. If no packets are shown the sender has not sent any weather packets the latest 10 day(s).
| Time | Temp. | Humidity | Pressure | Rain* | Wind** | Luminosity | Snow |
|---|---|---|---|---|---|---|---|
| 1778092253 | 15.56° C | 40% | 1018.7 hPa | 0 mm | - | 628 W/m² | - |
| 1778091950 | 15° C | 39% | 1018.8 hPa | 0 mm | - | 656 W/m² | - |
| 1778091647 | 15° C | 38% | 1019.3 hPa | 0 mm | - | 668 W/m² | - |
| 1778091345 | 15.56° C | 37% | 1019.1 hPa | 0 mm | - | 668 W/m² | - |
| 1778091041 | 15° C | 40% | 1019 hPa | 0 mm | - | 652 W/m² | - |
| 1778090737 | 15° C | 39% | 1019 hPa | 0 mm | - | 669 W/m² | - |
| 1778090429 | 15.56° C | 43% | 1019 hPa | 0 mm | - | 723 W/m² | - |
| 1778090126 | 15° C | 35% | 1019.2 hPa | 0 mm | - | 737 W/m² | - |
| 1778089822 | 14.44° C | 45% | 1019 hPa | 0 mm | - | 722 W/m² | - |
| 1778089520 | 15° C | 38% | 1019.2 hPa | 0 mm | - | 537 W/m² | - |
| 1778089210 | 15° C | 44% | 1019.3 hPa | 0 mm | - | 642 W/m² | - |
| 1778088909 | 14.44° C | 41% | 1019.4 hPa | 0 mm | - | 513 W/m² | - |
| 1778088605 | 14.44° C | 44% | 1019.2 hPa | 0 mm | - | 549 W/m² | - |
| 1778088302 | 15° C | 42% | 1019.2 hPa | 0 mm | - | 658 W/m² | - |
| 1778087998 | 13.89° C | 40% | 1019.4 hPa | 0 mm | - | 447 W/m² | - |
| 1778087696 | 13.89° C | 40% | 1019.3 hPa | 0 mm | - | 359 W/m² | - |
| 1778087394 | 14.44° C | 40% | 1019.5 hPa | 0 mm | - | 465 W/m² | - |
| 1778087089 | 14.44° C | 42% | 1019.5 hPa | 0 mm | - | 515 W/m² | - |
| 1778086782 | 13.89° C | 46% | 1019.5 hPa | 0 mm | - | 380 W/m² | - |
| 1778086480 | 13.89° C | 41% | 1019.4 hPa | 0 mm | - | 417 W/m² | - |
| 1778086176 | 13.89° C | 42% | 1019.7 hPa | 0 mm | - | 377 W/m² | - |
| 1778085873 | 13.33° C | 44% | 1019.5 hPa | 0 mm | - | 322 W/m² | - |
| 1778085565 | 13.33° C | 41% | 1019.4 hPa | 0 mm | - | 326 W/m² | - |
| 1778085260 | 13.89° C | 40% | 1019.3 hPa | 0 mm | - | 346 W/m² | - |
| 1778084955 | 13.89° C | 43% | 1019.4 hPa | 0 mm | - | 390 W/m² | - |
* Rain latest hour (hover to see other rain measurements)
** Current wind speed in m/s (hover to see current wind gust speed)